BEIDOU IGSO-6 (C13)

Last updated on Jan. 19, 2020, 4:38 a.m. UTC

1 41434U 16021A   20018.50873407 -.00000164  00000-0  00000-0 0  9993
2 41434  56.8253  62.1301 0040997 209.2206 123.9480  1.00289798 14006
UTC
Height (km)
Latitude
Longitude
Inclination
Orbital Period
UTC large
Height (km)
Speed (km/s)
/
Latitude / Longitude
Inclination (degrees)
Orbital Period (minutes)
Azimuth
Elevation
Range (km)
Doppler Factor
iOS Compass Heading
iOS Angle

Next 30 passes for location: Hong Kong

Rise time Rise Azimuth (degrees) Set time Set Azimuth (degrees) Duration Max altitude (degrees)

No matching passes for this satellites